Weather in Corabia

Romania     43°46′51″N   24°30′02″E
temp.,
°C
wind,
m/s
gust,
m/s
humid.,
%
clouds,
%
prec.,
mm/h
press.,
hPa
HPBL,
m
14 april, wed
wed1400:00+11sw2493100 1.5 1014107
03:00+11w359599 1.6 1013262
06:00+9w469590 0.0 1012152
09:00+5wnw81490100 1.6 1015494
12:00+9wnw10126638 1.1 10151023
15:00+11wnw1113535 1.1 10151320
18:00+10wnw1015605 0.0 10151228
21:00+5wnw916735 0.0 1017904
15 april, thu
thu1500:00+5w916695 0.0 1017879
03:00+5w10156799 0.0 10181157
06:00+5w9146879 0.0 10181144
09:00+6w9137112 0.0 10191113
12:00+10wnw9115560 0.0 10191499
15:00+12w9104676 0.0 10181897
18:00+11wnw810505 0.0 10181658
21:00+8w714570 0.0 1019697
16 april, fri
fri1600:00+6w815630 0.0 1019664
03:00+5w714680 0.0 1019518
06:00+4w614690 0.0 1020524
09:00+7w812604 0.0 10211021
12:00+11w810465 0.0 10211496
15:00+13wnw78415 0.0 10201738
18:00+13wnw564298 0.0 10191405
21:00+8wsw2259100 0.0 102011
17 april, sat
sat1700:00+7s0060100 0.0 102010
03:00+6ene1163100 0.0 101910
06:00+7ene1262100 0.0 101920
09:00+9e3561100 0.1 1019352
12:00+8e3681100 0.3 1018333
15:00+10e5885100 0.5 1016610
18:00+9e71284100 0.9 1014541
21:00+7e51089100 2.5 1015462
18 april, sun
sun1800:00+7e5989100 0.0 1015382
03:00+7e5890100 0.0 1015393
06:00+7e61093100 0.0 1015518
09:00+7e6989100 0.0 1016573
12:00+8e5889100 0.0 1017617
15:00+10ene6682100 0.1 1016775
18:00+9ene5688100 0.1 1017620
21:00+8ene4896100 0.9 1017466